Weather in Tatarskoye Bulyarovo

Russia / Republic of Tatarstan     55°26′34″N   53°34′19″E
temp.,
°C
wind,
m/s
gust,
m/s
humid.,
%
clouds,
%
prec.,
mm/h
press.,
hPa
HPBL,
m
5 march, fri
fri500:00−4w9178533 0.1 994654
03:00−7w6139243 0.1 997419
06:00−9wsw499596 0.0 999223
09:00−8w369298 0.0 1001278
12:00−7nw3590100 0.0 1001330
15:00−7wnw3689100 0.0 1003365
18:00−11w34910 0.0 100638
21:00−14wsw44870 0.0 100961
6 march, sat
sat600:00−14wsw47952 0.0 1009103
03:00−14sw479635 0.0 1011132
06:00−15sw369780 0.0 101097
09:00−10wsw589389 0.4 1012449
12:00−8wnw4590100 0.2 1012582
15:00−8wnw2491100 0.3 1012403
18:00−12wnw3491100 0.1 101354
21:00−17w339196 0.1 101424
7 march, sun
sun700:00−18wsw239785 0.0 101320
03:00−17ssw229779 0.0 101221
06:00−17sw239793 0.1 101131
09:00−15wsw249551 0.1 1010193
12:00−12wsw359294 0.0 1010377
15:00−11wsw359297 0.1 1009466
18:00−15sw349590 0.0 100945
21:00−17s449455 0.0 100863
8 march, mon
mon800:00−14s6129384 0.0 1006271
03:00−12s7139392 0.3 1002435
06:00−10s81691100 0.6 998670
09:00−6ssw81493100 1.0 997849
12:00−5w91381100 0.4 9991002
15:00−6sw6118350 0.4 1001702
18:00−9ssw5138720 0.0 1002344
21:00−11s499045 0.0 1000185
9 march, tue
tue900:00−9e4696100 2.1 996171
03:00−9n4696100 6.6 994256
06:00−10wnw71194100 1.8 998349
09:00−9w61093100 1.8 1003469
12:00−9w71092100 0.1 1007498
15:00−9wsw5892100 0.1 1009445
18:00−13wsw4696100 0.0 101090
21:00−15wsw3496100 0.1 101174